Weather History for Gaithersburg, MD

Change the Weather History Date:

Sunday, October 13, 2013

  Actual Average (KCGS) Record (KCGS)
Temperature  
Mean Temperature 58 °F -  
Max Temperature 62 °F 68 °F 92 °F (1954)
Min Temperature 55 °F 49 °F 30 °F (1957)
Degree Days  
Heating Degree Days 6    
Growing Degree Days 8 (Base 50)    
Moisture  
Dew Point 55 °F    
Average Humidity 91    
Maximum Humidity 100    
Minimum Humidity 77    
Precipitation  
Precipitation 0.15 in - - ()
Sea Level Pressure  
Sea Level Pressure 30.29 in    
Wind  
Wind Speed 3 mph (NE)    
Max Wind Speed 8 mph    
Max Gust Speed -    
Visibility 8 miles    
Events      
Averages and records for this station are not official NWS values.
T = Trace of Precipitation, MM = Missing Value Source: NWS Daily Summary

Daily Weather History Graph

Daily Weather History Graph

Search for Another Location

Airport:

Trip Planner

Search our weather history database for the weather conditions in past years. The results will help you decide how hot, cold, wet, or windy it might be!

Date:

Astronomy

Oct. 13, 2013 Rise Set
Actual Time 7:16 AM EDT 6:32 PM EDT
Civil Twilight 6:49 AM EDT 6:59 PM EDT
Nautical Twilight 6:18 AM EDT 7:30 PM EDT
Astronomical Twilight 5:47 AM EDT 8:01 PM EDT
Moon 3:20 PM EDT (10/13) 1:26 AM EDT (10/13)
Length of Visible Light 12h 09m
Length of Day
11h 15m
Waxing Gibbous, 69% of the Moon is Illuminated
Oct 13
Waxing Gibbous
Oct 18
Full
Oct 26
Last Quarter
Nov 3
New
Nov 10
First Quarter

Hourly Weather History & Observations

Time (EDT) Temp. Dew Point Humidity Pressure Visibility Wind Dir Wind Speed Gust Speed Precip Events Conditions
12:15 AM 59.0 °F 57.2 °F 94% 30.21 in 5.0 mi NE 3.5 mph - 0.01 in   Overcast
12:35 AM 57.2 °F 55.4 °F 94% 30.21 in 6.0 mi Calm Calm - 0.01 in   Overcast
12:55 AM 57.2 °F 55.4 °F 94% 30.21 in 5.0 mi ENE 4.6 mph - 0.01 in   Overcast
1:15 AM 57.2 °F 55.4 °F 94% 30.21 in 9.0 mi NE 3.5 mph - N/A   Overcast
1:35 AM 57.2 °F 57.2 °F 100% 30.21 in 5.0 mi NE 4.6 mph - N/A   Overcast
1:55 AM 59.0 °F 57.2 °F 94% 30.21 in 6.0 mi NNE 3.5 mph - 0.02 in   Overcast
2:15 AM 59.0 °F 57.2 °F 94% 30.21 in 6.0 mi NE 3.5 mph - N/A   Overcast
2:35 AM 59.0 °F 57.2 °F 94% 30.21 in 10.0 mi NE 8.1 mph - N/A   Overcast
2:55 AM 59.0 °F 57.2 °F 94% 30.21 in 10.0 mi NE 4.6 mph - N/A   Overcast
3:15 AM 59.0 °F 57.2 °F 94% 30.21 in 8.0 mi NE 4.6 mph - N/A   Overcast
3:35 AM 59.0 °F 57.2 °F 94% 30.21 in 6.0 mi ENE 3.5 mph - 0.01 in   Overcast
3:55 AM 59.0 °F 57.2 °F 94% 30.22 in 5.0 mi Calm Calm - 0.01 in   Overcast
4:15 AM 59.0 °F 57.2 °F 94% 30.22 in 5.0 mi NE 5.8 mph - N/A   Overcast
4:35 AM 59.0 °F 57.2 °F 94% 30.22 in 7.0 mi NE 4.6 mph - N/A   Overcast
4:55 AM 59.0 °F 57.2 °F 94% 30.22 in 7.0 mi East 4.6 mph - N/A   Overcast
5:15 AM 59.0 °F 57.2 °F 94% 30.22 in 7.0 mi ENE 5.8 mph - 0.01 in   Overcast
5:35 AM 59.0 °F 55.4 °F 88% 30.23 in 5.0 mi East 4.6 mph - 0.05 in   Overcast
5:55 AM 57.2 °F 55.4 °F 94% 30.23 in 9.0 mi ENE 6.9 mph - 0.06 in   Overcast
6:15 AM 57.2 °F 55.4 °F 94% 30.24 in 6.0 mi East 3.5 mph - N/A   Overcast
6:35 AM 57.2 °F 55.4 °F 94% 30.25 in 7.0 mi ENE 5.8 mph - N/A   Overcast
6:55 AM 57.2 °F 55.4 °F 94% 30.26 in 10.0 mi ENE 4.6 mph - N/A   Overcast
7:15 AM 57.2 °F 55.4 °F 94% 30.26 in 5.0 mi NE 3.5 mph - N/A   Overcast
7:35 AM 57.2 °F 55.4 °F 94% 30.27 in 5.0 mi NE 4.6 mph - 0.01 in   Overcast
7:55 AM 57.2 °F 55.4 °F 94% 30.28 in 5.0 mi Calm Calm - 0.01 in   Overcast
8:15 AM 57.2 °F 55.4 °F 94% 30.29 in 5.0 mi NE 3.5 mph - N/A   Overcast
8:35 AM 57.2 °F 55.4 °F 94% 30.29 in 8.0 mi NE 4.6 mph - N/A   Overcast
8:55 AM 57.2 °F 55.4 °F 94% 30.30 in 7.0 mi ENE 3.5 mph - 0.01 in   Overcast
9:15 AM 57.2 °F 55.4 °F 94% 30.31 in 4.0 mi ENE 3.5 mph - N/A   Overcast
9:35 AM 57.2 °F 55.4 °F 94% 30.31 in 5.0 mi NE 4.6 mph - N/A   Overcast
9:55 AM 57.2 °F 55.4 °F 94% 30.32 in 3.0 mi NE 5.8 mph - 0.01 in   Overcast
10:15 AM 57.2 °F 55.4 °F 94% 30.32 in 3.0 mi NE 4.6 mph - N/A   Overcast
10:35 AM 57.2 °F 55.4 °F 94% 30.32 in 5.0 mi NE 5.8 mph - 0.01 in   Overcast
10:55 AM 57.2 °F 55.4 °F 94% 30.32 in 10.0 mi ENE 4.6 mph - 0.01 in   Overcast
11:15 AM 57.2 °F 55.4 °F 94% 30.33 in 10.0 mi ENE 3.5 mph - N/A   Overcast
11:35 AM 57.2 °F 55.4 °F 94% 30.33 in 10.0 mi NE 4.6 mph - N/A   Overcast
11:55 AM 57.2 °F 53.6 °F 88% 30.33 in 8.0 mi NNE 4.6 mph - N/A   Overcast
12:15 PM 57.2 °F 55.4 °F 94% 30.33 in 10.0 mi NNE 4.6 mph - N/A   Overcast
12:35 PM 57.2 °F 55.4 °F 94% 30.33 in 10.0 mi NE 3.5 mph - N/A   Overcast
12:55 PM 57.2 °F 55.4 °F 94% 30.33 in 2.5 mi Calm Calm - 0.01 in   Overcast
1:15 PM 57.2 °F 55.4 °F 94% 30.32 in 10.0 mi NNE 3.5 mph - N/A   Overcast
1:35 PM 57.2 °F 55.4 °F 94% 30.32 in 9.0 mi NE 4.6 mph - N/A   Overcast
1:55 PM 57.2 °F 55.4 °F 94% 30.32 in 10.0 mi ENE 5.8 mph - N/A   Overcast
2:15 PM 57.2 °F 55.4 °F 94% 30.32 in 10.0 mi NE 4.6 mph - N/A   Overcast
2:35 PM 57.2 °F 55.4 °F 94% 30.31 in 10.0 mi NE 4.6 mph - N/A   Overcast
2:55 PM 59.0 °F 55.4 °F 88% 30.31 in 10.0 mi NE 4.6 mph - N/A   Overcast
3:15 PM 59.0 °F 55.4 °F 88% 30.31 in 10.0 mi NE 3.5 mph - N/A   Overcast
3:35 PM 60.8 °F 57.2 °F 88% 30.31 in 10.0 mi NNE 5.8 mph - N/A   Overcast
3:55 PM 60.8 °F 55.4 °F 82% 30.31 in 10.0 mi NE 3.5 mph - N/A   Overcast
4:15 PM 60.8 °F 55.4 °F 82% 30.31 in 10.0 mi ENE 3.5 mph - N/A   Overcast
4:35 PM 60.8 °F 55.4 °F 82% 30.31 in 10.0 mi East 3.5 mph - N/A   Overcast
4:55 PM 62.6 °F 55.4 °F 77% 30.31 in 10.0 mi ENE 3.5 mph - N/A   Overcast
5:15 PM 62.6 °F 55.4 °F 77% 30.31 in 7.0 mi East 3.5 mph - N/A   Overcast
5:35 PM 62.6 °F 55.4 °F 77% 30.31 in 10.0 mi Calm Calm - N/A   Overcast
5:55 PM 60.8 °F 55.4 °F 82% 30.31 in 10.0 mi Calm Calm - N/A   Overcast
6:15 PM 60.8 °F 57.2 °F 88% 30.31 in 10.0 mi Calm Calm - N/A   Overcast
6:35 PM 60.8 °F 57.2 °F 88% 30.32 in 10.0 mi Calm Calm - N/A   Overcast
6:55 PM 60.8 °F 57.2 °F 88% 30.32 in 10.0 mi Calm Calm - N/A   Overcast
7:15 PM 60.8 °F 57.2 °F 88% 30.32 in 10.0 mi Calm Calm - N/A   Overcast
7:35 PM 59.0 °F 55.4 °F 88% 30.32 in 10.0 mi Calm Calm - N/A   Overcast
7:55 PM 59.0 °F 55.4 °F 88% 30.33 in 10.0 mi Calm Calm - N/A   Mostly Cloudy
8:15 PM 59.0 °F 53.6 °F 82% 30.33 in 10.0 mi Calm Calm - N/A   Overcast
8:35 PM 57.2 °F 53.6 °F 88% 30.34 in 10.0 mi Calm Calm - N/A   Mostly Cloudy
8:55 PM 57.2 °F 53.6 °F 88% 30.34 in 10.0 mi Calm Calm - N/A   Overcast
9:15 PM 57.2 °F 53.6 °F 88% 30.35 in 10.0 mi Calm Calm - N/A   Overcast
9:35 PM 57.2 °F 53.6 °F 88% 30.35 in 10.0 mi Calm Calm - N/A   Overcast
9:55 PM 57.2 °F 53.6 °F 88% 30.35 in 10.0 mi Calm Calm - N/A   Mostly Cloudy
10:15 PM 57.2 °F 53.6 °F 88% 30.36 in 10.0 mi Calm Calm - N/A   Overcast
10:35 PM 57.2 °F 53.6 °F 88% 30.36 in 10.0 mi East 4.6 mph - N/A   Overcast
10:55 PM 55.4 °F 51.8 °F 88% 30.35 in 10.0 mi East 4.6 mph - N/A   Mostly Cloudy
11:15 PM 55.4 °F 51.8 °F 88% 30.36 in 10.0 mi East 3.5 mph - N/A   Mostly Cloudy
11:35 PM 55.4 °F 51.8 °F 88% 30.36 in 10.0 mi Calm Calm - N/A   Mostly Cloudy
11:55 PM 55.4 °F 51.8 °F 88% 30.36 in 10.0 mi Calm Calm - N/A   Mostly Cloudy